COSMOS 2251 DEB, 36439

Orbit data source: Space-Track

COSMOS 2251 DEB, 36439 is space debris in LEO originally from a launch on Wed, 16 Jun 1993 UTC launched from the Plesetsk Missile And Space Complex (PKMTR). The debris from Iridium 33, an American commercial communications satellite, has been tracked extensively since its accidental collision with the defunct Russian satellite Cosmos 2251 in 2009. This event, occurring at high speed in low Earth orbit (LEO), generated thousands of pieces of space debris, significantly increasing the risk of further collisions. The Iridium 33 debris cloud has impacted space traffic management and orbital debris mitigation strategies, making it a subject of ongoing study in space situational awareness.

Loading next visibility...
Identifier
36439, 1993-036BAN
Orbit
LEO
Country
Flag of CISCIS
Related business
Manufacturer
Unknown
Mission
Spacecraft
Bus & Motor
Unknown
Mass
Unknown
Launch date (UTC)
1993-06-16 (33 years ago)
Launch vehicle
Unknown
Launch site
Plesetsk Missile And Space Complex (PKMTR)
Object type
Payload
Rocket body
Debris
Shape & HBR
Unknown shape, 0.1 m
Radar Cross Section
Small (<0.1 m²)

Expand to show TLE details & history
Last TLE update: 1 week ago

TLE from 1 week ago
0 COSMOS 2251 DEB
1 36439U 93036BAN 26156.59230994  .00001246  00000-0  11788-2 0  9997
2 36439  73.9682 117.5345 0422462  56.1267 307.9285 13.48334003609698
Epoch: 2026-06-05T14:12Z
TLE epoch observation values (Epoch: 2026-06-05T14:12:55.578Z)
Latitude
-0.00001°
Longitude
10.28291°
Altitude
895.842 km
Speed
7.496 km/s
True Right ascension
07h 50m 08s
True Declination
0° 00' 00"
Sunlit
Object was in daylight at epoch
Visualization orbit readout
Latitude
Unknown
Longitude
Unknown
Altitude
Unknown
Speed
Unknown
Apparent Right ascension
Unknown
Apparent Declination
Unknown
Sunlit
N/A
Visualization observer readout
Local Sidereal Time
21:03:31
Azimuth
Unknown
Elevation
Unknown
Doppler factor
Unknown
Orbital elements
Apogee altitude
1,391.03 km
Perigee altitude
761.202 km
Semi-major axis
7,454.253 km
Eccentricity
0.04225
Inclination
73.9682°
RAAN
117.5345°
Arg. of periapsis
56.1267°
True anomaly
303.98518°
Mean anomaly
307.9285°
Eccentric anomaly
305.96949°
Mean motion
3.37238 °/min
Orbital period
106.75 mins
BSTAR
0.0011788

Documentation

Showing up to 5 results
|